EN

Hourly Weather Lai Chau

Today, 25 July, Sunday

Time Temperature Precipitation Wind Pressure Humidity
00:00 +21°C° 1.1 mm 0 mps 680 mmHg 98%
01:00 +21°C° 0 mm 0 mps 680 mmHg 99%
02:00 +21°C° 1.6 mm 0 mps 680 mmHg 99%
03:00 +21°C° 1.6 mm 0 mps 680 mmHg 99%
04:00 +21°C° 1.6 mm 0 mps 680 mmHg 99%
05:00 +21°C° 2.4 mm 0 mps 680 mmHg 99%
06:00 +21°C° 2.4 mm 0 mps 680 mmHg 99%
07:00 +21°C° 0 mm 0 mps 680 mmHg 99%
08:00 +21°C° 6.3 mm 0 mps 681 mmHg 99%
09:00 +21°C° 6.3 mm 0 mps 681 mmHg 99%
10:00 +21°C° 6.3 mm 0 mps 682 mmHg 99%
11:00 +21°C° 2.5 mm 0 mps 682 mmHg 99%
12:00 +22°C° 2.5 mm 0 mps 681 mmHg 99%
13:00 +22°C° 2.5 mm 0 mps 681 mmHg 98%
14:00 +22°C° 0.4 mm 0 mps 681 mmHg 99%
15:00 +22°C° 0.4 mm 0 mps 680 mmHg 99%
16:00 +21°C° 0.4 mm 0 mps 680 mmHg 99%
17:00 +21°C° 0.1 mm 0 mps 680 mmHg 99%
18:00 +21°C° 0.1 mm 0 mps 680 mmHg 99%
19:00 +21°C° 0.1 mm 0 mps 680 mmHg 99%
20:00 +20°C° 0.5 mm 0 mps 681 mmHg 99%
21:00 +20°C° 0.5 mm 0 mps 681 mmHg 99%
22:00 +20°C° 0.5 mm 0 mps 682 mmHg 99%
23:00 +20°C° 1 mm 0 mps 681 mmHg 99%

Tomorrow, 26 July, Monday

Time Temperature Precipitation Wind Pressure Humidity
00:00 +19°C° 1 mm 0 mps 681 mmHg 99%
01:00 +19°C° 1 mm 0 mps 681 mmHg 99%
02:00 +19°C° 2.1 mm 0 mps 681 mmHg 99%
03:00 +19°C° 2.1 mm 0 mps 680 mmHg 99%
04:00 +19°C° 2.1 mm 0 mps 680 mmHg 99%
05:00 +19°C° 0.4 mm 0 mps 680 mmHg 99%
06:00 +19°C° 0.4 mm 0 mps 681 mmHg 99%
07:00 +19°C° 0.4 mm 0 mps 681 mmHg 99%
08:00 +20°C° 0.1 mm 0 mps 681 mmHg 98%
09:00 +20°C° 0.1 mm 0 mps 681 mmHg 97%
10:00 +21°C° 0.1 mm 0 mps 682 mmHg 95%
11:00 +21°C° 0.2 mm 0 mps 681 mmHg 94%
12:00 +21°C° 0.2 mm 0 mps 681 mmHg 92%
13:00 +22°C° 0.2 mm 0 mps 681 mmHg 90%
14:00 +23°C° 0.1 mm 0 mps 680 mmHg 86%
15:00 +26°C° 0.1 mm 1 mps 680 mmHg 81%
16:00 +27°C° 0.1 mm 1 mps 679 mmHg 76%
17:00 +25°C° 0.2 mm 1 mps 679 mmHg 82%
18:00 +22°C° 0.2 mm 0 mps 679 mmHg 89%
19:00 +21°C° 0.2 mm 0 mps 679 mmHg 95%
20:00 +20°C° 0 mm 0 mps 680 mmHg 96%
21:00 +20°C° 0 mm 0 mps 680 mmHg 97%
22:00 +20°C° 0 mm 0 mps 681 mmHg 98%
23:00 +19°C° 0 mm 0 mps 681 mmHg 98%

Day after tomorrow, 27 July, Tuesday

Time Temperature Precipitation Wind Pressure Humidity
00:00 +19°C° 0 mm 0 mps 680 mmHg 98%
01:00 +19°C° 0 mm 0 mps 680 mmHg 99%
02:00 +19°C° 0 mm 0 mps 680 mmHg 99%
03:00 +19°C° 0 mm 0 mps 680 mmHg 99%
04:00 +19°C° 0 mm 0 mps 680 mmHg 99%
05:00 +19°C° 0 mm 0 mps 680 mmHg 98%
06:00 +20°C° 0 mm 0 mps 680 mmHg 97%
07:00 +20°C° 0 mm 0 mps 681 mmHg 96%
08:00 +21°C° 0.1 mm 0 mps 681 mmHg 92%
09:00 +22°C° 0.1 mm 0 mps 681 mmHg 87%
10:00 +24°C° 0.1 mm 0 mps 681 mmHg 82%
11:00 +26°C° 0.2 mm 0 mps 681 mmHg 74%
12:00 +30°C° 0.2 mm 1 mps 680 mmHg 65%
13:00 +32°C° 0.2 mm 1 mps 680 mmHg 56%
14:00 +31°C° 0.2 mm 1 mps 679 mmHg 62%
15:00 +28°C° 0.2 mm 0 mps 679 mmHg 68%
16:00 +27°C° 0.2 mm 0 mps 678 mmHg 74%
17:00 +25°C° 0.3 mm 0 mps 678 mmHg 81%
18:00 +24°C° 0.3 mm 0 mps 678 mmHg 88%
19:00 +22°C° 0.3 mm 0 mps 678 mmHg 96%
20:00 +22°C° 0.1 mm 0 mps 679 mmHg 96%
21:00 +21°C° 0.1 mm 0 mps 679 mmHg 97%
22:00 +21°C° 0.1 mm 0 mps 680 mmHg 98%
23:00 +21°C° 0.2 mm 0 mps 680 mmHg 98%

28 July, Wednesday

Time Temperature Precipitation Wind Pressure Humidity
00:00 +20°C° 0.2 mm 0 mps 680 mmHg 98%
01:00 +20°C° 0.2 mm 0 mps 679 mmHg 98%
02:00 +20°C° 0.2 mm 0 mps 679 mmHg 99%
03:00 +20°C° 0.2 mm 0 mps 679 mmHg 99%
04:00 +20°C° 0.2 mm 0 mps 679 mmHg 99%
05:00 +20°C° 0 mm 0 mps 680 mmHg 99%
06:00 +21°C° 0 mm 0 mps 680 mmHg 99%
07:00 +21°C° 0 mm 0 mps 680 mmHg 98%
08:00 +22°C° 0.2 mm 0 mps 681 mmHg 93%
09:00 +24°C° 0.2 mm 0 mps 681 mmHg 87%
10:00 +25°C° 0.2 mm 0 mps 681 mmHg 81%
11:00 +26°C° 1 mm 0 mps 681 mmHg 83%
12:00 +26°C° 1 mm 0 mps 680 mmHg 86%
13:00 +26°C° 1 mm 0 mps 680 mmHg 88%
14:00 +27°C° 0.8 mm 0 mps 679 mmHg 85%
15:00 +27°C° 0.8 mm 0 mps 679 mmHg 82%
16:00 +27°C° 0.8 mm 0 mps 679 mmHg 79%
17:00 +26°C° 1 mm 0 mps 679 mmHg 85%
18:00 +24°C° 1 mm 0 mps 678 mmHg 91%
19:00 +23°C° 1 mm 0 mps 678 mmHg 97%
20:00 +23°C° 1.2 mm 0 mps 679 mmHg 97%
21:00 +22°C° 1.2 mm 0 mps 680 mmHg 98%
22:00 +22°C° 1.2 mm 0 mps 680 mmHg 98%
23:00 +22°C° 1.5 mm 0 mps 680 mmHg 99%

29 July, Thursday

Time Temperature Precipitation Wind Pressure Humidity
00:00 +22°C° 1.5 mm 0 mps 680 mmHg 99%
01:00 +21°C° 1.5 mm 0 mps 680 mmHg 99%
02:00 +21°C° 2.5 mm 0 mps 679 mmHg 99%
03:00 +21°C° 2.5 mm 0 mps 679 mmHg 99%
04:00 +21°C° 2.5 mm 0 mps 679 mmHg 99%
05:00 +21°C° 2.1 mm 0 mps 680 mmHg 99%
06:00 +21°C° 2.1 mm 0 mps 680 mmHg 99%
07:00 +21°C° 2.1 mm 0 mps 680 mmHg 99%
08:00 +22°C° 0.8 mm 0 mps 681 mmHg 99%
09:00 +22°C° 0.8 mm 0 mps 681 mmHg 99%
10:00 +22°C° 0.8 mm 0 mps 681 mmHg 99%
11:00 +22°C° 0.4 mm 0 mps 681 mmHg 98%
12:00 +23°C° 0.4 mm 0 mps 681 mmHg 97%
13:00 +23°C° 0.4 mm 0 mps 681 mmHg 96%
14:00 +24°C° 0.4 mm 0 mps 680 mmHg 93%
15:00 +25°C° 0.4 mm 0 mps 680 mmHg 89%
16:00 +26°C° 0.4 mm 0 mps 680 mmHg 86%
17:00 +25°C° 0.6 mm 0 mps 680 mmHg 90%
18:00 +23°C° 0.6 mm 0 mps 680 mmHg 94%
19:00 +22°C° 0.6 mm 0 mps 681 mmHg 98%
20:00 +22°C° 0.5 mm 0 mps 681 mmHg 98%
21:00 +22°C° 0.5 mm 0 mps 681 mmHg 98%
22:00 +21°C° 0.5 mm 0 mps 682 mmHg 99%
23:00 +21°C° 0 mm 0 mps 681 mmHg 99%

30 July, Friday

Time Temperature Precipitation Wind Pressure Humidity
00:00 +21°C° 0 mm 0 mps 681 mmHg 99%
01:00 +21°C° 0 mm 0 mps 681 mmHg 99%
02:00 +21°C° 0 mm 0 mps 681 mmHg 99%
03:00 +21°C° 0 mm 0 mps 681 mmHg 99%
04:00 +21°C° 0 mm 0 mps 680 mmHg 99%
05:00 +21°C° 0.1 mm 0 mps 681 mmHg 99%
06:00 +21°C° 0.1 mm 0 mps 681 mmHg 99%
07:00 +22°C° 0.1 mm 0 mps 681 mmHg 99%
08:00 +23°C° 0.4 mm 0 mps 682 mmHg 96%
09:00 +23°C° 0.4 mm 0 mps 682 mmHg 93%
10:00 +24°C° 0.4 mm 0 mps 682 mmHg 90%
11:00 +25°C° 1.2 mm 0 mps 682 mmHg 90%
12:00 +25°C° 1.2 mm 0 mps 681 mmHg 90%
13:00 +26°C° 1.2 mm 0 mps 681 mmHg 90%
14:00 +28°C° 1 mm 1 mps 681 mmHg 88%
15:00 +28°C° 1 mm 1 mps 680 mmHg 87%
16:00 +28°C° 1 mm 1 mps 680 mmHg 85%
17:00 +27°C° 1 mm 1 mps 680 mmHg 89%
18:00 +26°C° 1 mm 1 mps 680 mmHg 93%
19:00 +23°C° 1 mm 0 mps 680 mmHg 97%
20:00 +23°C° 1.5 mm 0 mps 680 mmHg 98%
21:00 +22°C° 1.5 mm 0 mps 681 mmHg 98%
22:00 +22°C° 1.5 mm 0 mps 681 mmHg 99%
23:00 +22°C° 3.4 mm 0 mps 681 mmHg 99%
Show more